Terminal Aerodrome Forecast
Issued by NWS Portland, OR

Home | Current Version | Previous Version | Text Only | Print | Product List | Glossary On
Versions: 1 2 3 4 5 6 7 8 9 10 11 12 13 14 15 16 17 18 19 20 21 22 23 24 25 26 27 28 29 30 31 32 33 34 35 36 37 38 39 40 41 42 43 44 45 46 47 48
000
FTUS46 KPQR 182330
TAFEUG
TAF
KEUG 182330Z 1900/1924 19007KT P6SM -RA SCT035 BKN050 OVC070
     FM190300 19010KT 6SM -RA BR SCT025 OVC040
     FM190600 20009KT 5SM -RA BR BKN025 OVC040
     FM190800 20007KT P6SM -SHRA BKN025 BKN050
     FM191200 19006KT P6SM -SHRA SCT025 BKN060=

USA.gov is the U.S. government's official web portal to all federal, state and local government web resources and services.